Weather Roundup
Issued by NWS

Home | Current Version | Previous Version | Text Only | Print | Product List | Glossary On
Versions: 1 2 3 4 5 6 7 8 9 10 11 12 13 14 15 16 17 18 19 20 21 22 23 24 25 26 27 28 29 30 31 32 33 34 35 36 37 38 39 40 41 42 43 44 45 46 47 48 49 50
000
NZUS93 KARX 231810
HRRWXR

CURRENT HOURLY OBSERVATIONS ACROSS
MUCH OF THE UPPER MISSISSIPPI VALLEY
NATIONAL WEATHER SERVICE LA CROSSE WI
100 PM CDT MON APR 23 2018


...SOUTHEAST MINNESOTA...


CITY           SKY/WX    TMP DP  RH WIND       PRES   REMARKS
ROCHESTER      FAIR      62  34  35 CALM      30.21F
ROCHESTER/MAYO FAIR      65  30  27 NE3       30.20F
WINONA         FAIR      61  28  29 E5        30.18F
AUSTIN         FAIR      61  34  36 CALM      30.20F
ALBERT LEA     FAIR      61  30  31 N3        30.21F
DODGE CENTER   FAIR      63  30  29 CALM      30.21F
PRESTON        FAIR      60  30  31 NE7       30.20F
OWATONNA       FAIR      63  39  42 CALM      30.21F
FARIBAULT      NOT AVBL
$$

...ELSEWHERE IN MINNESOTA...


CITY           SKY/WX    TMP DP  RH WIND       PRES   REMARKS
MINNEAPOLIS    FAIR      66  35  31 VRB6      30.21F
INTNL FALLS    FAIR      64  36  35 W9        30.13F
DULUTH         FAIR      64  38  38 W6        30.17F
RED WING       FAIR      64  25  22 SW6       30.19F
REDWOOD FALLS  SUNNY     61  43  51 S8        30.20F
MANKATO        FAIR      63  36  36 NW3       30.21F
WORTHINGTON    SUNNY     62  33  33 VRB5      30.21F
FAIRMONT       SUNNY     56  40  55 S5        30.22F
$$

...SOUTHWEST WISCONSIN...


CITY           SKY/WX    TMP DP  RH WIND       PRES   REMARKS
LA CROSSE      FAIR      65  28  24 W9        30.19F
PRAIRIE DU CHI FAIR      65  21  18 E12       30.17F
BOSCOBEL       FAIR      67  27  22 VRB7      30.19F
LONE ROCK      FAIR      63  27  25 E12       30.18F
PLATTEVILLE    FAIR      65  28  24 NE16G22   30.17F
FORT MC COY    FAIR      65  24  20 E6        30.20F
CAMP DOUGLAS   SUNNY     63  30  29 SE5       30.20F
MAUSTON-NEW LI FAIR      62  30  30 N5        30.19F
VIROQUA        FAIR      62  31  31 E6        30.19F
WIS DELLS      FAIR      63  25  23 E10       30.19F
$$

...ELSEWHERE IN WISCONSIN...


CITY           SKY/WX    TMP DP  RH WIND       PRES   REMARKS
MILWAUKEE      PTSUNNY   55  28  35 NE13      30.20F
MADISON        PTSUNNY   64  28  25 NE14      30.18F
GREEN BAY      FAIR      61  28  28 NW3       30.23F
EAU CLAIRE     FAIR      63  28  26 SE3       30.20F
BLACK RVR FLS  FAIR      66  14  13 E5        30.20F
MEDFORD        FAIR      55  29  36 CALM      30.22F
WAUSAU         FAIR      60  23  24 SW3       30.20F
WIS RAPIDS     FAIR      62  25  24 NW6       30.21F
MARSHFIELD     FAIR      58  27  30 VRB3      30.21F
RICE LAKE      FAIR      60  29  30 SW3       30.23F
$$

...NORTHEAST IOWA...


CITY           SKY/WX    TMP DP  RH WIND       PRES   REMARKS
WATERLOO       FAIR      67  31  26 NE13      30.16F
DUBUQUE        FAIR      64  24  21 NE16G23   30.15F
DECORAH        FAIR      63  28  27 E8        30.18F
MASON CITY     SUNNY     63  38  39 NE7       30.21F
CHARLES CITY   FAIR      64  32  29 E8G14     30.19F
OELWEIN        FAIR      66  28  24 VRB5G14   30.17F
$$

...ELSEWHERE IN IOWA...


CITY           SKY/WX    TMP DP  RH WIND       PRES   REMARKS
DES MOINES     PTSUNNY   68  31  25 NE8       30.15F
IOWA CITY      FAIR      70  22  16 N20       30.13F
FORT DODGE     SUNNY     66  36  32 NE13      30.18F
MARSHALLTOWN   SUNNY     68  31  25 NE13      30.15F
CEDAR RAPIDS   FAIR      70  24  17 NE17G24   30.13F
$$

...NORTHERN ILLINOIS...


CITY           SKY/WX    TMP DP  RH WIND       PRES   REMARKS
CHICAGO-OHARE  PTSUNNY   59  29  31 NE15      30.14F
CHICAGO-MIDWAY PTSUNNY   60  31  33 N13       30.13F
MOLINE         FAIR      70  33  25 NE9       30.10F
ROCKFORD       PTSUNNY   67  29  24 NE12      30.15F
PEORIA         CLOUDY    65  36  34 NE10G22   30.07F
$$

NOTE: "FAIR" INDICATES FEW OR NO CLOUDS BELOW 12,000 FEET WITH NO
SIGNIFICANT WEATHER AND/OR OBSTRUCTIONS TO VISIBILITY. WIND
SPEEDS ARE IN MILES-PER-HOUR.




USA.gov is the U.S. government's official web portal to all federal, state and local government web resources and services.